• In Uzbekistan
  • List of Countries
  • For 7 days
  • Water Temperature
  • Satellite Maps
  • Weather Map
  • Weather Widgets
  • user-avatar
    Login

    Hourly Weather Graz

    Today, 25 March, Monday

    Time Temperature Precipitation Wind Pressure Humidity
    00:00 +12°C° 0 mm 1 mps 724 mmHg 75%
    01:00 +12°C° 0 mm 1 mps 724 mmHg 76%
    02:00 +11°C° 0.1 mm 1 mps 724 mmHg 78%
    03:00 +10°C° 0.1 mm 1 mps 724 mmHg 80%
    04:00 +10°C° 0.1 mm 1 mps 723 mmHg 83%
    05:00 +10°C° 0.1 mm 1 mps 723 mmHg 82%
    06:00 +10°C° 0.1 mm 1 mps 723 mmHg 82%
    07:00 +10°C° 0.1 mm 1 mps 723 mmHg 82%
    08:00 +11°C° 0.1 mm 1 mps 723 mmHg 75%
    09:00 +13°C° 0.1 mm 1 mps 723 mmHg 69%
    10:00 +14°C° 0.1 mm 1 mps 723 mmHg 62%
    11:00 +14°C° 0.4 mm 1 mps 723 mmHg 63%
    12:00 +13°C° 0.4 mm 1 mps 722 mmHg 65%
    13:00 +13°C° 0.4 mm 1 mps 722 mmHg 66%
    14:00 +12°C° 1 mm 2 mps 722 mmHg 68%
    15:00 +10°C° 1 mm 2 mps 722 mmHg 70%
    16:00 +9°C° 1 mm 2 mps 722 mmHg 71%
    17:00 +8°C° 0.5 mm 2 mps 722 mmHg 71%
    18:00 +8°C° 0.5 mm 1 mps 723 mmHg 71%
    19:00 +7°C° 0.5 mm 1 mps 723 mmHg 70%
    20:00 +7°C° 0.4 mm 1 mps 724 mmHg 71%
    21:00 +6°C° 0.4 mm 1 mps 725 mmHg 73%
    22:00 +5°C° 0.4 mm 1 mps 726 mmHg 74%
    23:00 +5°C° 0.1 mm 1 mps 726 mmHg 74%

    Tomorrow, 26 March, Tuesday

    Time Temperature Precipitation Wind Pressure Humidity
    00:00 +5°C° 0.1 mm 1 mps 727 mmHg 75%
    01:00 +4°C° 0.1 mm 1 mps 727 mmHg 75%
    02:00 +4°C° 0 mm 1 mps 727 mmHg 75%
    03:00 +4°C° 0 mm 1 mps 728 mmHg 76%
    04:00 +3°C° 0 mm 2 mps 728 mmHg 76%
    05:00 +3°C° 0 mm 2 mps 728 mmHg 74%
    06:00 +3°C° 0 mm 2 mps 728 mmHg 73%
    07:00 +3°C° 0 mm 2 mps 729 mmHg 72%
    08:00 +5°C° 0 mm 2 mps 729 mmHg 63%
    09:00 +5°C° 0 mm 3 mps 729 mmHg 54%
    10:00 +7°C° 0 mm 3 mps 730 mmHg 46%
    11:00 +8°C° 0 mm 3 mps 729 mmHg 42%
    12:00 +9°C° 0 mm 3 mps 729 mmHg 39%
    13:00 +10°C° 0 mm 3 mps 729 mmHg 36%
    14:00 +10°C° 0 mm 3 mps 729 mmHg 37%
    15:00 +10°C° 0 mm 3 mps 729 mmHg 38%
    16:00 +10°C° 0 mm 3 mps 729 mmHg 39%
    17:00 +8°C° 0 mm 2 mps 729 mmHg 48%
    18:00 +6°C° 0 mm 2 mps 729 mmHg 56%
    19:00 +5°C° 0 mm 1 mps 730 mmHg 64%
    20:00 +4°C° 0 mm 1 mps 730 mmHg 68%
    21:00 +4°C° 0 mm 1 mps 731 mmHg 71%
    22:00 +3°C° 0 mm 1 mps 731 mmHg 75%
    23:00 +3°C° 0 mm 1 mps 731 mmHg 77%

    Day after tomorrow, 27 March, Wednesday

    Time Temperature Precipitation Wind Pressure Humidity
    00:00 +3°C° 0 mm 1 mps 731 mmHg 79%
    01:00 +2°C° 0 mm 1 mps 731 mmHg 81%
    02:00 +2°C° 0 mm 1 mps 731 mmHg 81%
    03:00 +2°C° 0 mm 1 mps 731 mmHg 81%
    04:00 +2°C° 0 mm 1 mps 731 mmHg 81%
    05:00 +3°C° 0 mm 1 mps 731 mmHg 78%
    06:00 +3°C° 0 mm 1 mps 732 mmHg 75%
    07:00 +4°C° 0 mm 1 mps 732 mmHg 72%
    08:00 +6°C° 0 mm 1 mps 732 mmHg 64%
    09:00 +7°C° 0 mm 1 mps 732 mmHg 55%
    10:00 +9°C° 0 mm 1 mps 733 mmHg 47%
    11:00 +9°C° 0 mm 1 mps 733 mmHg 46%
    12:00 +9°C° 0 mm 2 mps 733 mmHg 45%
    13:00 +10°C° 0 mm 2 mps 732 mmHg 44%
    14:00 +9°C° 0 mm 2 mps 732 mmHg 45%
    15:00 +9°C° 0 mm 2 mps 732 mmHg 47%
    16:00 +10°C° 0 mm 1 mps 732 mmHg 48%
    17:00 +8°C° 0 mm 1 mps 732 mmHg 54%
    18:00 +7°C° 0 mm 1 mps 732 mmHg 61%
    19:00 +5°C° 0 mm 1 mps 733 mmHg 67%
    20:00 +5°C° 0 mm 1 mps 733 mmHg 71%
    21:00 +4°C° 0 mm 1 mps 733 mmHg 74%
    22:00 +3°C° 0 mm 1 mps 734 mmHg 78%
    23:00 +3°C° 0 mm 1 mps 734 mmHg 79%

    28 March, Thursday

    Time Temperature Precipitation Wind Pressure Humidity
    00:00 +3°C° 0 mm 1 mps 734 mmHg 80%
    01:00 +3°C° 0 mm 1 mps 734 mmHg 81%
    02:00 +2°C° 0 mm 1 mps 734 mmHg 81%
    03:00 +2°C° 0 mm 1 mps 734 mmHg 80%
    04:00 +2°C° 0 mm 1 mps 734 mmHg 80%
    05:00 +3°C° 0 mm 1 mps 734 mmHg 78%
    06:00 +4°C° 0 mm 1 mps 734 mmHg 75%
    07:00 +4°C° 0 mm 1 mps 735 mmHg 72%
    08:00 +7°C° 0 mm 1 mps 735 mmHg 65%
    09:00 +9°C° 0 mm 1 mps 735 mmHg 57%
    10:00 +11°C° 0 mm 1 mps 735 mmHg 49%
    11:00 +11°C° 0 mm 1 mps 734 mmHg 49%
    12:00 +12°C° 0 mm 2 mps 734 mmHg 49%
    13:00 +12°C° 0 mm 2 mps 734 mmHg 49%
    14:00 +12°C° 0 mm 2 mps 733 mmHg 50%
    15:00 +10°C° 0 mm 2 mps 733 mmHg 52%
    16:00 +10°C° 0 mm 2 mps 733 mmHg 53%
    17:00 +10°C° 0 mm 1 mps 733 mmHg 60%
    18:00 +8°C° 0 mm 1 mps 733 mmHg 67%
    19:00 +6°C° 0 mm 0 mps 733 mmHg 74%
    20:00 +5°C° 0 mm 0 mps 734 mmHg 76%
    21:00 +5°C° 0 mm 0 mps 734 mmHg 77%
    22:00 +6°C° 0 mm 1 mps 735 mmHg 78%
    23:00 +6°C° 0 mm 1 mps 735 mmHg 79%

    29 March, Friday

    Time Temperature Precipitation Wind Pressure Humidity
    00:00 +5°C° 0 mm 1 mps 735 mmHg 81%
    01:00 +5°C° 0 mm 1 mps 735 mmHg 82%
    02:00 +5°C° 0 mm 1 mps 734 mmHg 84%
    03:00 +4°C° 0 mm 1 mps 734 mmHg 85%
    04:00 +4°C° 0 mm 1 mps 734 mmHg 87%
    05:00 +4°C° 0 mm 1 mps 734 mmHg 84%
    06:00 +5°C° 0 mm 1 mps 735 mmHg 81%
    07:00 +5°C° 0 mm 1 mps 735 mmHg 78%
    08:00 +7°C° 0 mm 1 mps 735 mmHg 69%
    09:00 +9°C° 0 mm 1 mps 735 mmHg 59%
    10:00 +10°C° 0 mm 2 mps 735 mmHg 50%
    11:00 +12°C° 0 mm 2 mps 734 mmHg 47%
    12:00 +13°C° 0 mm 2 mps 734 mmHg 44%
    13:00 +13°C° 0 mm 2 mps 734 mmHg 42%
    14:00 +13°C° 0 mm 2 mps 733 mmHg 42%
    15:00 +13°C° 0 mm 2 mps 733 mmHg 42%
    16:00 +13°C° 0 mm 2 mps 732 mmHg 43%
    17:00 +11°C° 0 mm 1 mps 732 mmHg 50%
    18:00 +9°C° 0 mm 1 mps 732 mmHg 58%
    19:00 +6°C° 0 mm 0 mps 732 mmHg 66%
    20:00 +5°C° 0 mm 0 mps 733 mmHg 67%
    21:00 +6°C° 0 mm 1 mps 733 mmHg 69%
    22:00 +5°C° 0 mm 1 mps 733 mmHg 70%
    23:00 +5°C° 0 mm 1 mps 733 mmHg 71%

    30 March, Saturday

    Time Temperature Precipitation Wind Pressure Humidity
    00:00 +5°C° 0 mm 1 mps 733 mmHg 72%
    01:00 +4°C° 0 mm 1 mps 733 mmHg 73%
    02:00 +4°C° 0 mm 1 mps 733 mmHg 74%
    03:00 +4°C° 0 mm 1 mps 732 mmHg 74%
    04:00 +4°C° 0 mm 1 mps 732 mmHg 75%
    05:00 +4°C° 0 mm 1 mps 732 mmHg 72%
    06:00 +5°C° 0 mm 1 mps 732 mmHg 69%
    07:00 +6°C° 0 mm 1 mps 732 mmHg 66%
    08:00 +9°C° 0 mm 1 mps 732 mmHg 56%
    09:00 +12°C° 0 mm 1 mps 732 mmHg 47%
    10:00 +14°C° 0 mm 0 mps 732 mmHg 37%
    11:00 +15°C° 0 mm 1 mps 732 mmHg 35%
    12:00 +16°C° 0 mm 1 mps 731 mmHg 33%
    13:00 +18°C° 0 mm 1 mps 731 mmHg 31%
    14:00 +18°C° 0 mm 1 mps 730 mmHg 32%
    15:00 +16°C° 0 mm 1 mps 729 mmHg 33%
    16:00 +16°C° 0 mm 1 mps 729 mmHg 34%
    17:00 +14°C° 0 mm 1 mps 729 mmHg 42%
    18:00 +11°C° 0 mm 1 mps 729 mmHg 50%
    19:00 +8°C° 0 mm 0 mps 729 mmHg 58%
    20:00 +8°C° 0 mm 1 mps 729 mmHg 61%
    21:00 +8°C° 0 mm 1 mps 729 mmHg 65%
    22:00 +7°C° 0 mm 1 mps 729 mmHg 68%
    23:00 +7°C° 0 mm 1 mps 729 mmHg 71%
    Show more